owner,sensor,date,latitude,longitude,vertical_datum,sea_water_temperature,qcFlag
Shell,ioos:station:wmo:42361:1,2023-01-24T19:25:00Z,27.5500,-92.4900,22.6,22.8,11111222
Shell,ioos:station:wmo:42361:1,2023-01-24T19:35:00Z,27.5500,-92.4900,22.6,22.8,11111222
Shell,ioos:station:wmo:42361:1,2023-01-24T19:45:00Z,27.5500,-92.4900,22.6,22.8,11111222
Shell,ioos:station:wmo:42361:1,2023-01-24T19:55:00Z,27.5500,-92.4900,22.6,22.8,11111222
Shell,ioos:station:wmo:42361:1,2023-01-24T20:05:00Z,27.5500,-92.4900,22.6,22.8,11111222
Shell,ioos:station:wmo:42361:1,2023-01-24T20:15:00Z,27.5500,-92.4900,22.6,22.9,11111222
Shell,ioos:station:wmo:42361:1,2023-01-24T20:25:00Z,27.5500,-92.4900,22.6,22.9,11111222
Shell,ioos:station:wmo:42361:1,2023-01-24T20:35:00Z,27.5500,-92.4900,22.6,22.9,11111222
Shell,ioos:station:wmo:42361:1,2023-01-24T20:45:00Z,27.5500,-92.4900,22.6,22.9,11111222
Shell,ioos:station:wmo:42361:1,2023-01-24T20:55:00Z,27.5500,-92.4900,22.6,22.9,11111222
Shell,ioos:station:wmo:42361:1,2023-01-24T21:05:00Z,27.5500,-92.4900,22.6,22.9,11111222
Shell,ioos:station:wmo:42361:1,2023-01-24T21:15:00Z,27.5500,-92.4900,22.6,22.9,11111222
Shell,ioos:station:wmo:42361:1,2023-01-24T21:25:00Z,27.5500,-92.4900,22.6,22.9,11111222
Shell,ioos:station:wmo:42361:1,2023-01-24T21:35:00Z,27.5500,-92.4900,22.6,22.9,11111222
Shell,ioos:station:wmo:42361:1,2023-01-24T21:45:00Z,27.5500,-92.4900,22.6,22.9,11111222
Shell,ioos:station:wmo:42361:1,2023-01-24T21:55:00Z,27.5500,-92.4900,22.6,22.9,11111222
Shell,ioos:station:wmo:42361:1,2023-01-24T22:05:00Z,27.5500,-92.4900,22.6,22.9,11111222
Shell,ioos:station:wmo:42361:1,2023-01-24T22:15:00Z,27.5500,-92.4900,22.6,22.9,11111222
Shell,ioos:station:wmo:42361:1,2023-01-24T22:25:00Z,27.5500,-92.4900,22.6,22.8,11111222
Shell,ioos:station:wmo:42361:1,2023-01-24T22:35:00Z,27.5500,-92.4900,22.6,22.9,11111222
Shell,ioos:station:wmo:42361:1,2023-01-24T22:45:00Z,27.5500,-92.4900,22.6,22.8,11111222
Shell,ioos:station:wmo:42361:1,2023-01-24T22:55:00Z,27.5500,-92.4900,22.6,22.8,11111222
Shell,ioos:station:wmo:42361:1,2023-01-24T23:05:00Z,27.5500,-92.4900,22.6,22.8,11111222
Shell,ioos:station:wmo:42361:1,2023-01-24T23:15:00Z,27.5500,-92.4900,22.6,22.8,11111222
Shell,ioos:station:wmo:42361:1,2023-01-24T23:25:00Z,27.5500,-92.4900,22.6,22.8,11111222
Shell,ioos:station:wmo:42361:1,2023-01-24T23:35:00Z,27.5500,-92.4900,22.6,22.8,11111222
Shell,ioos:station:wmo:42361:1,2023-01-24T23:45:00Z,27.5500,-92.4900,22.6,22.8,11111222
Shell,ioos:station:wmo:42361:1,2023-01-24T23:55:00Z,27.5500,-92.4900,22.6,22.8,11111222
Shell,ioos:station:wmo:42361:1,2023-01-25T00:05:00Z,27.5500,-92.4900,22.6,22.8,11111222
Shell,ioos:station:wmo:42361:1,2023-01-25T00:15:00Z,27.5500,-92.4900,22.6,22.8,11111222
Shell,ioos:station:wmo:42361:1,2023-01-25T00:25:00Z,27.5500,-92.4900,22.6,22.8,11111222
Shell,ioos:station:wmo:42361:1,2023-01-25T00:35:00Z,27.5500,-92.4900,22.6,22.8,11111222
Shell,ioos:station:wmo:42361:1,2023-01-25T00:45:00Z,27.5500,-92.4900,22.6,22.8,11111222
Shell,ioos:station:wmo:42361:1,2023-01-25T00:55:00Z,27.5500,-92.4900,22.6,22.8,11111222
Shell,ioos:station:wmo:42361:1,2023-01-25T01:05:00Z,27.5500,-92.4900,22.6,22.8,11111222
Shell,ioos:station:wmo:42361:1,2023-01-25T01:15:00Z,27.5500,-92.4900,22.6,22.8,11111222
Shell,ioos:station:wmo:42361:1,2023-01-25T01:25:00Z,27.5500,-92.4900,22.6,22.8,11111222
Shell,ioos:station:wmo:42361:1,2023-01-25T01:35:00Z,27.5500,-92.4900,22.6,22.8,11111222
Shell,ioos:station:wmo:42361:1,2023-01-25T01:45:00Z,27.5500,-92.4900,22.6,22.8,11111222
Shell,ioos:station:wmo:42361:1,2023-01-25T01:55:00Z,27.5500,-92.4900,22.6,22.8,11111222
Shell,ioos:station:wmo:42361:1,2023-01-25T02:05:00Z,27.5500,-92.4900,22.6,22.8,11111222
Shell,ioos:station:wmo:42361:1,2023-01-25T02:15:00Z,27.5500,-92.4900,22.6,22.7,11111222
Shell,ioos:station:wmo:42361:1,2023-01-25T02:25:00Z,27.5500,-92.4900,22.6,22.7,11111222
Shell,ioos:station:wmo:42361:1,2023-01-25T02:35:00Z,27.5500,-92.4900,22.6,22.7,11111222
Shell,ioos:station:wmo:42361:1,2023-01-25T02:45:00Z,27.5500,-92.4900,22.6,22.7,11111222
Shell,ioos:station:wmo:42361:1,2023-01-25T02:55:00Z,27.5500,-92.4900,22.6,22.7,11111222
Shell,ioos:station:wmo:42361:1,2023-01-25T03:05:00Z,27.5500,-92.4900,22.6,22.7,11111222
Shell,ioos:station:wmo:42361:1,2023-01-25T03:15:00Z,27.5500,-92.4900,22.6,22.8,11111222
Shell,ioos:station:wmo:42361:1,2023-01-25T03:25:00Z,27.5500,-92.4900,22.6,22.8,11111222
Shell,ioos:station:wmo:42361:1,2023-01-25T03:35:00Z,27.5500,-92.4900,22.6,22.9,11111222
Shell,ioos:station:wmo:42361:1,2023-01-25T03:45:00Z,27.5500,-92.4900,22.6,22.9,11111222
Shell,ioos:station:wmo:42361:1,2023-01-25T03:55:00Z,27.5500,-92.4900,22.6,23.0,11111222
Shell,ioos:station:wmo:42361:1,2023-01-25T04:05:00Z,27.5500,-92.4900,22.6,23.1,11111222
Shell,ioos:station:wmo:42361:1,2023-01-25T04:15:00Z,27.5500,-92.4900,22.6,23.1,11111222
Shell,ioos:station:wmo:42361:1,2023-01-25T04:25:00Z,27.5500,-92.4900,22.6,23.1,11111222
Shell,ioos:station:wmo:42361:1,2023-01-25T04:35:00Z,27.5500,-92.4900,22.6,23.1,11111222
Shell,ioos:station:wmo:42361:1,2023-01-25T04:45:00Z,27.5500,-92.4900,22.6,23.2,11111222
Shell,ioos:station:wmo:42361:1,2023-01-25T04:55:00Z,27.5500,-92.4900,22.6,23.2,11111222
Shell,ioos:station:wmo:42361:1,2023-01-25T05:05:00Z,27.5500,-92.4900,22.6,23.2,11111222
Shell,ioos:station:wmo:42361:1,2023-01-25T05:15:00Z,27.5500,-92.4900,22.6,23.3,11111222
Shell,ioos:station:wmo:42361:1,2023-01-25T05:25:00Z,27.5500,-92.4900,22.6,23.3,11111222
Shell,ioos:station:wmo:42361:1,2023-01-25T05:35:00Z,27.5500,-92.4900,22.6,23.3,11111222
Shell,ioos:station:wmo:42361:1,2023-01-25T05:45:00Z,27.5500,-92.4900,22.6,23.3,11111222
Shell,ioos:station:wmo:42361:1,2023-01-25T05:55:00Z,27.5500,-92.4900,22.6,23.3,11111222
Shell,ioos:station:wmo:42361:1,2023-01-25T06:05:00Z,27.5500,-92.4900,22.6,23.4,11111222
Shell,ioos:station:wmo:42361:1,2023-01-25T06:15:00Z,27.5500,-92.4900,22.6,23.4,11111222
Shell,ioos:station:wmo:42361:1,2023-01-25T06:25:00Z,27.5500,-92.4900,22.6,23.4,11111222
Shell,ioos:station:wmo:42361:1,2023-01-25T06:35:00Z,27.5500,-92.4900,22.6,23.4,11111222
Shell,ioos:station:wmo:42361:1,2023-01-25T06:45:00Z,27.5500,-92.4900,22.6,23.4,11111222
Shell,ioos:station:wmo:42361:1,2023-01-25T06:55:00Z,27.5500,-92.4900,22.6,23.4,11111222
Shell,ioos:station:wmo:42361:1,2023-01-25T07:05:00Z,27.5500,-92.4900,22.6,23.4,11111222
Shell,ioos:station:wmo:42361:1,2023-01-25T07:15:00Z,27.5500,-92.4900,22.6,23.4,11111222
Shell,ioos:station:wmo:42361:1,2023-01-25T07:25:00Z,27.5500,-92.4900,22.6,23.5,11111222
Shell,ioos:station:wmo:42361:1,2023-01-25T07:35:00Z,27.5500,-92.4900,22.6,23.5,11111222
Shell,ioos:station:wmo:42361:1,2023-01-25T07:45:00Z,27.5500,-92.4900,22.6,23.5,11111222
Shell,ioos:station:wmo:42361:1,2023-01-25T07:55:00Z,27.5500,-92.4900,22.6,23.5,11111222
Shell,ioos:station:wmo:42361:1,2023-01-25T08:05:00Z,27.5500,-92.4900,22.6,23.6,11111222
Shell,ioos:station:wmo:42361:1,2023-01-25T08:15:00Z,27.5500,-92.4900,22.6,23.6,11111222
Shell,ioos:station:wmo:42361:1,2023-01-25T08:25:00Z,27.5500,-92.4900,22.6,23.6,11111222
Shell,ioos:station:wmo:42361:1,2023-01-25T08:35:00Z,27.5500,-92.4900,22.6,23.6,11111222
Shell,ioos:station:wmo:42361:1,2023-01-25T08:45:00Z,27.5500,-92.4900,22.6,23.6,11111222
Shell,ioos:station:wmo:42361:1,2023-01-25T08:55:00Z,27.5500,-92.4900,22.6,23.6,11111222
Shell,ioos:station:wmo:42361:1,2023-01-25T09:05:00Z,27.5500,-92.4900,22.6,23.6,11111222
Shell,ioos:station:wmo:42361:1,2023-01-25T09:15:00Z,27.5500,-92.4900,22.6,23.6,11111222
Shell,ioos:station:wmo:42361:1,2023-01-25T09:25:00Z,27.5500,-92.4900,22.6,23.7,11111222
Shell,ioos:station:wmo:42361:1,2023-01-25T09:35:00Z,27.5500,-92.4900,22.6,23.7,11111222
Shell,ioos:station:wmo:42361:1,2023-01-25T09:45:00Z,27.5500,-92.4900,22.6,23.7,11111222
Shell,ioos:station:wmo:42361:1,2023-01-25T09:55:00Z,27.5500,-92.4900,22.6,23.7,11111222
Shell,ioos:station:wmo:42361:1,2023-01-25T10:05:00Z,27.5500,-92.4900,22.6,23.7,11111222
Shell,ioos:station:wmo:42361:1,2023-01-25T10:15:00Z,27.5500,-92.4900,22.6,23.7,11111222
Shell,ioos:station:wmo:42361:1,2023-01-25T10:25:00Z,27.5500,-92.4900,22.6,23.7,11111222
Shell,ioos:station:wmo:42361:1,2023-01-25T10:35:00Z,27.5500,-92.4900,22.6,23.7,11111222
Shell,ioos:station:wmo:42361:1,2023-01-25T10:45:00Z,27.5500,-92.4900,22.6,23.7,11111222
Shell,ioos:station:wmo:42361:1,2023-01-25T10:55:00Z,27.5500,-92.4900,22.6,23.7,11111222
Shell,ioos:station:wmo:42361:1,2023-01-25T11:05:00Z,27.5500,-92.4900,22.6,23.7,11111222
Shell,ioos:station:wmo:42361:1,2023-01-25T11:15:00Z,27.5500,-92.4900,22.6,23.7,11111222
Shell,ioos:station:wmo:42361:1,2023-01-25T11:25:00Z,27.5500,-92.4900,22.6,23.7,11111222
Shell,ioos:station:wmo:42361:1,2023-01-25T11:35:00Z,27.5500,-92.4900,22.6,23.7,11111222
Shell,ioos:station:wmo:42361:1,2023-01-25T11:45:00Z,27.5500,-92.4900,22.6,23.7,11111222
Shell,ioos:station:wmo:42361:1,2023-01-25T11:55:00Z,27.5500,-92.4900,22.6,23.7,11111222
Shell,ioos:station:wmo:42361:1,2023-01-25T12:05:00Z,27.5500,-92.4900,22.6,23.7,11111222
Shell,ioos:station:wmo:42361:1,2023-01-25T12:15:00Z,27.5500,-92.4900,22.6,23.7,11111222
Shell,ioos:station:wmo:42361:1,2023-01-25T12:25:00Z,27.5500,-92.4900,22.6,23.7,11111222
Shell,ioos:station:wmo:42361:1,2023-01-25T12:35:00Z,27.5500,-92.4900,22.6,23.7,11111222
Shell,ioos:station:wmo:42361:1,2023-01-25T12:45:00Z,27.5500,-92.4900,22.6,23.7,11111222
Shell,ioos:station:wmo:42361:1,2023-01-25T12:55:00Z,27.5500,-92.4900,22.6,23.7,11111222
Shell,ioos:station:wmo:42361:1,2023-01-25T13:05:00Z,27.5500,-92.4900,22.6,23.7,11111222
Shell,ioos:station:wmo:42361:1,2023-01-25T13:15:00Z,27.5500,-92.4900,22.6,23.7,11111222
Shell,ioos:station:wmo:42361:1,2023-01-25T13:25:00Z,27.5500,-92.4900,22.6,23.7,11111222
Shell,ioos:station:wmo:42361:1,2023-01-25T13:35:00Z,27.5500,-92.4900,22.6,23.7,11111222
Shell,ioos:station:wmo:42361:1,2023-01-25T13:45:00Z,27.5500,-92.4900,22.6,23.7,11111222
Shell,ioos:station:wmo:42361:1,2023-01-25T13:55:00Z,27.5500,-92.4900,22.6,23.7,11111222
Shell,ioos:station:wmo:42361:1,2023-01-25T14:05:00Z,27.5500,-92.4900,22.6,23.7,11111222
Shell,ioos:station:wmo:42361:1,2023-01-25T14:15:00Z,27.5500,-92.4900,22.6,23.7,11111222
Shell,ioos:station:wmo:42361:1,2023-01-25T14:25:00Z,27.5500,-92.4900,22.6,23.7,11111222
Shell,ioos:station:wmo:42361:1,2023-01-25T14:35:00Z,27.5500,-92.4900,22.6,23.7,11111222
Shell,ioos:station:wmo:42361:1,2023-01-25T14:45:00Z,27.5500,-92.4900,22.6,23.7,11111222
Shell,ioos:station:wmo:42361:1,2023-01-25T14:55:00Z,27.5500,-92.4900,22.6,23.7,11111222
Shell,ioos:station:wmo:42361:1,2023-01-25T15:05:00Z,27.5500,-92.4900,22.6,23.7,11111222
Shell,ioos:station:wmo:42361:1,2023-01-25T15:15:00Z,27.5500,-92.4900,22.6,23.7,11111222
Shell,ioos:station:wmo:42361:1,2023-01-25T15:25:00Z,27.5500,-92.4900,22.6,23.7,11111222
Shell,ioos:station:wmo:42361:1,2023-01-25T15:35:00Z,27.5500,-92.4900,22.6,23.7,11111222
Shell,ioos:station:wmo:42361:1,2023-01-25T15:45:00Z,27.5500,-92.4900,22.6,23.7,11111222
Shell,ioos:station:wmo:42361:1,2023-01-25T15:55:00Z,27.5500,-92.4900,22.6,23.7,11111222
Shell,ioos:station:wmo:42361:1,2023-01-25T16:05:00Z,27.5500,-92.4900,22.6,23.7,11111222
Shell,ioos:station:wmo:42361:1,2023-01-25T16:15:00Z,27.5500,-92.4900,22.6,23.6,11111222
Shell,ioos:station:wmo:42361:1,2023-01-25T16:25:00Z,27.5500,-92.4900,22.6,23.6,11111222
Shell,ioos:station:wmo:42361:1,2023-01-25T16:35:00Z,27.5500,-92.4900,22.6,23.6,11111222
Shell,ioos:station:wmo:42361:1,2023-01-25T16:45:00Z,27.5500,-92.4900,22.6,23.6,11111222
Shell,ioos:station:wmo:42361:1,2023-01-25T16:55:00Z,27.5500,-92.4900,22.6,23.6,11111222
Shell,ioos:station:wmo:42361:1,2023-01-25T17:05:00Z,27.5500,-92.4900,22.6,23.6,11111222
Shell,ioos:station:wmo:42361:1,2023-01-25T17:15:00Z,27.5500,-92.4900,22.6,23.6,11111222
Shell,ioos:station:wmo:42361:1,2023-01-25T17:25:00Z,27.5500,-92.4900,22.6,23.6,11111222
Shell,ioos:station:wmo:42361:1,2023-01-25T17:35:00Z,27.5500,-92.4900,22.6,23.6,11111222
Shell,ioos:station:wmo:42361:1,2023-01-25T17:45:00Z,27.5500,-92.4900,22.6,23.6,11111222
Shell,ioos:station:wmo:42361:1,2023-01-25T17:55:00Z,27.5500,-92.4900,22.6,23.6,11111222
Shell,ioos:station:wmo:42361:1,2023-01-25T18:05:00Z,27.5500,-92.4900,22.6,23.6,11111222
Shell,ioos:station:wmo:42361:1,2023-01-25T18:15:00Z,27.5500,-92.4900,22.6,23.6,11111222
Shell,ioos:station:wmo:42361:1,2023-01-25T18:25:00Z,27.5500,-92.4900,22.6,23.6,11111222
Shell,ioos:station:wmo:42361:1,2023-01-25T18:35:00Z,27.5500,-92.4900,22.6,23.6,11111222
Shell,ioos:station:wmo:42361:1,2023-01-25T18:45:00Z,27.5500,-92.4900,22.6,23.6,11111222
Shell,ioos:station:wmo:42361:1,2023-01-25T18:55:00Z,27.5500,-92.4900,22.6,23.6,11111222
Shell,ioos:station:wmo:42361:1,2023-01-25T19:05:00Z,27.5500,-92.4900,22.6,23.6,11111222
Shell,ioos:station:wmo:42361:1,2023-01-25T19:15:00Z,27.5500,-92.4900,22.6,23.6,11111222
Shell,ioos:station:wmo:42361:1,2023-01-25T19:25:00Z,27.5500,-92.4900,22.6,23.6,11111222
Shell,ioos:station:wmo:42361:1,2023-01-25T19:35:00Z,27.5500,-92.4900,22.6,23.6,11111222
Shell,ioos:station:wmo:42361:1,2023-01-25T19:45:00Z,27.5500,-92.4900,22.6,23.6,11111222
Shell,ioos:station:wmo:42361:1,2023-01-25T19:55:00Z,27.5500,-92.4900,22.6,23.6,11111222
Shell,ioos:station:wmo:42361:1,2023-01-25T20:05:00Z,27.5500,-92.4900,22.6,23.6,11111222
Shell,ioos:station:wmo:42361:1,2023-01-25T20:15:00Z,27.5500,-92.4900,22.6,23.6,11111222
Shell,ioos:station:wmo:42361:1,2023-01-25T20:25:00Z,27.5500,-92.4900,22.6,23.6,11111222
Shell,ioos:station:wmo:42361:1,2023-01-25T20:35:00Z,27.5500,-92.4900,22.6,23.6,11111222
Shell,ioos:station:wmo:42361:1,2023-01-25T20:45:00Z,27.5500,-92.4900,22.6,23.6,11111222
Shell,ioos:station:wmo:42361:1,2023-01-25T20:55:00Z,27.5500,-92.4900,22.6,23.6,11111222
Shell,ioos:station:wmo:42361:1,2023-01-25T21:05:00Z,27.5500,-92.4900,22.6,23.6,11111222
Shell,ioos:station:wmo:42361:1,2023-01-25T21:15:00Z,27.5500,-92.4900,22.6,23.6,11111222
Shell,ioos:station:wmo:42361:1,2023-01-25T21:25:00Z,27.5500,-92.4900,22.6,23.6,11111222
Shell,ioos:station:wmo:42361:1,2023-01-25T21:35:00Z,27.5500,-92.4900,22.6,23.6,11111222
Shell,ioos:station:wmo:42361:1,2023-01-25T21:45:00Z,27.5500,-92.4900,22.6,23.6,11111222
Shell,ioos:station:wmo:42361:1,2023-01-25T21:55:00Z,27.5500,-92.4900,22.6,23.6,11111222
Shell,ioos:station:wmo:42361:1,2023-01-25T22:05:00Z,27.5500,-92.4900,22.6,23.6,11111222
Shell,ioos:station:wmo:42361:1,2023-01-25T22:15:00Z,27.5500,-92.4900,22.6,23.6,11111222
Shell,ioos:station:wmo:42361:1,2023-01-25T22:25:00Z,27.5500,-92.4900,22.6,23.6,11111222
Shell,ioos:station:wmo:42361:1,2023-01-25T22:35:00Z,27.5500,-92.4900,22.6,23.6,11111222
Shell,ioos:station:wmo:42361:1,2023-01-25T22:45:00Z,27.5500,-92.4900,22.6,23.6,11111222
Shell,ioos:station:wmo:42361:1,2023-01-25T22:55:00Z,27.5500,-92.4900,22.6,23.6,11111222
Shell,ioos:station:wmo:42361:1,2023-01-25T23:05:00Z,27.5500,-92.4900,22.6,23.6,11111222
Shell,ioos:station:wmo:42361:1,2023-01-25T23:15:00Z,27.5500,-92.4900,22.6,23.6,11111222
Shell,ioos:station:wmo:42361:1,2023-01-25T23:25:00Z,27.5500,-92.4900,22.6,23.6,11111222
Shell,ioos:station:wmo:42361:1,2023-01-25T23:35:00Z,27.5500,-92.4900,22.6,23.6,11111222
Shell,ioos:station:wmo:42361:1,2023-01-25T23:45:00Z,27.5500,-92.4900,22.6,23.6,11111222
Shell,ioos:station:wmo:42361:1,2023-01-25T23:55:00Z,27.5500,-92.4900,22.6,23.6,11111222
Shell,ioos:station:wmo:42361:1,2023-01-26T00:05:00Z,27.5500,-92.4900,22.6,23.6,11111222
Shell,ioos:station:wmo:42361:1,2023-01-26T00:15:00Z,27.5500,-92.4900,22.6,23.6,11111222
Shell,ioos:station:wmo:42361:1,2023-01-26T00:25:00Z,27.5500,-92.4900,22.6,23.6,11111222
Shell,ioos:station:wmo:42361:1,2023-01-26T00:35:00Z,27.5500,-92.4900,22.6,23.6,11111222
Shell,ioos:station:wmo:42361:1,2023-01-26T00:45:00Z,27.5500,-92.4900,22.6,23.6,11111222
Shell,ioos:station:wmo:42361:1,2023-01-26T00:55:00Z,27.5500,-92.4900,22.6,23.6,11111222
Shell,ioos:station:wmo:42361:1,2023-01-26T01:05:00Z,27.5500,-92.4900,22.6,23.6,11111222
Shell,ioos:station:wmo:42361:1,2023-01-26T01:15:00Z,27.5500,-92.4900,22.6,23.6,11111222
Shell,ioos:station:wmo:42361:1,2023-01-26T01:25:00Z,27.5500,-92.4900,22.6,23.6,11111222
Shell,ioos:station:wmo:42361:1,2023-01-26T01:35:00Z,27.5500,-92.4900,22.6,23.6,11111222
Shell,ioos:station:wmo:42361:1,2023-01-26T01:45:00Z,27.5500,-92.4900,22.6,23.6,11111222
Shell,ioos:station:wmo:42361:1,2023-01-26T01:55:00Z,27.5500,-92.4900,22.6,23.6,11111222
Shell,ioos:station:wmo:42361:1,2023-01-26T02:05:00Z,27.5500,-92.4900,22.6,23.6,11111222
Shell,ioos:station:wmo:42361:1,2023-01-26T02:15:00Z,27.5500,-92.4900,22.6,23.6,11111222
Shell,ioos:station:wmo:42361:1,2023-01-26T02:25:00Z,27.5500,-92.4900,22.6,23.6,11111222
Shell,ioos:station:wmo:42361:1,2023-01-26T02:35:00Z,27.5500,-92.4900,22.6,23.6,11111222
Shell,ioos:station:wmo:42361:1,2023-01-26T02:45:00Z,27.5500,-92.4900,22.6,23.5,11111222
Shell,ioos:station:wmo:42361:1,2023-01-26T02:55:00Z,27.5500,-92.4900,22.6,23.5,11111222
Shell,ioos:station:wmo:42361:1,2023-01-26T03:05:00Z,27.5500,-92.4900,22.6,23.5,11111222
Shell,ioos:station:wmo:42361:1,2023-01-26T03:15:00Z,27.5500,-92.4900,22.6,23.5,11111222
Shell,ioos:station:wmo:42361:1,2023-01-26T03:25:00Z,27.5500,-92.4900,22.6,23.5,11111222
Shell,ioos:station:wmo:42361:1,2023-01-26T03:35:00Z,27.5500,-92.4900,22.6,23.5,11111222
Shell,ioos:station:wmo:42361:1,2023-01-26T03:45:00Z,27.5500,-92.4900,22.6,23.5,11111222
Shell,ioos:station:wmo:42361:1,2023-01-26T03:55:00Z,27.5500,-92.4900,22.6,23.5,11111222
Shell,ioos:station:wmo:42361:1,2023-01-26T04:05:00Z,27.5500,-92.4900,22.6,23.5,11111222
Shell,ioos:station:wmo:42361:1,2023-01-26T04:15:00Z,27.5500,-92.4900,22.6,23.5,11111222
Shell,ioos:station:wmo:42361:1,2023-01-26T04:25:00Z,27.5500,-92.4900,22.6,23.5,11111222
Shell,ioos:station:wmo:42361:1,2023-01-26T04:35:00Z,27.5500,-92.4900,22.6,23.5,11111222
Shell,ioos:station:wmo:42361:1,2023-01-26T04:45:00Z,27.5500,-92.4900,22.6,23.5,11111222
Shell,ioos:station:wmo:42361:1,2023-01-26T04:55:00Z,27.5500,-92.4900,22.6,23.5,11111222
Shell,ioos:station:wmo:42361:1,2023-01-26T05:05:00Z,27.5500,-92.4900,22.6,23.5,11111222
Shell,ioos:station:wmo:42361:1,2023-01-26T05:15:00Z,27.5500,-92.4900,22.6,23.5,11111222
Shell,ioos:station:wmo:42361:1,2023-01-26T05:25:00Z,27.5500,-92.4900,22.6,23.5,11111222
Shell,ioos:station:wmo:42361:1,2023-01-26T05:35:00Z,27.5500,-92.4900,22.6,23.5,11111222
Shell,ioos:station:wmo:42361:1,2023-01-26T05:45:00Z,27.5500,-92.4900,22.6,23.5,11111222
Shell,ioos:station:wmo:42361:1,2023-01-26T05:55:00Z,27.5500,-92.4900,22.6,23.5,11111222
Shell,ioos:station:wmo:42361:1,2023-01-26T06:05:00Z,27.5500,-92.4900,22.6,23.5,11111222
Shell,ioos:station:wmo:42361:1,2023-01-26T06:15:00Z,27.5500,-92.4900,22.6,23.5,11111222
Shell,ioos:station:wmo:42361:1,2023-01-26T06:25:00Z,27.5500,-92.4900,22.6,23.5,11111222
Shell,ioos:station:wmo:42361:1,2023-01-26T06:35:00Z,27.5500,-92.4900,22.6,23.5,11111222
Shell,ioos:station:wmo:42361:1,2023-01-26T06:45:00Z,27.5500,-92.4900,22.6,23.5,11111222
Shell,ioos:station:wmo:42361:1,2023-01-26T06:55:00Z,27.5500,-92.4900,22.6,23.5,11111222
Shell,ioos:station:wmo:42361:1,2023-01-26T07:05:00Z,27.5500,-92.4900,22.6,23.5,11111222
Shell,ioos:station:wmo:42361:1,2023-01-26T07:15:00Z,27.5500,-92.4900,22.6,23.5,11111222
Shell,ioos:station:wmo:42361:1,2023-01-26T07:25:00Z,27.5500,-92.4900,22.6,23.5,11111222
Shell,ioos:station:wmo:42361:1,2023-01-26T07:35:00Z,27.5500,-92.4900,22.6,23.5,11111222
Shell,ioos:station:wmo:42361:1,2023-01-26T07:45:00Z,27.5500,-92.4900,22.6,23.5,11111222
Shell,ioos:station:wmo:42361:1,2023-01-26T07:55:00Z,27.5500,-92.4900,22.6,23.5,11111222
Shell,ioos:station:wmo:42361:1,2023-01-26T08:05:00Z,27.5500,-92.4900,22.6,23.5,11111222
Shell,ioos:station:wmo:42361:1,2023-01-26T08:15:00Z,27.5500,-92.4900,22.6,23.5,11111222
Shell,ioos:station:wmo:42361:1,2023-01-26T08:25:00Z,27.5500,-92.4900,22.6,23.5,11111222
Shell,ioos:station:wmo:42361:1,2023-01-26T08:35:00Z,27.5500,-92.4900,22.6,23.5,11111222
Shell,ioos:station:wmo:42361:1,2023-01-26T08:45:00Z,27.5500,-92.4900,22.6,23.5,11111222
Shell,ioos:station:wmo:42361:1,2023-01-26T08:55:00Z,27.5500,-92.4900,22.6,23.5,11111222
Shell,ioos:station:wmo:42361:1,2023-01-26T09:05:00Z,27.5500,-92.4900,22.6,23.5,11111222
Shell,ioos:station:wmo:42361:1,2023-01-26T09:15:00Z,27.5500,-92.4900,22.6,23.5,11111222
Shell,ioos:station:wmo:42361:1,2023-01-26T09:25:00Z,27.5500,-92.4900,22.6,23.5,11111222
Shell,ioos:station:wmo:42361:1,2023-01-26T09:35:00Z,27.5500,-92.4900,22.6,23.5,11111222
Shell,ioos:station:wmo:42361:1,2023-01-26T09:45:00Z,27.5500,-92.4900,22.6,23.5,11111222
Shell,ioos:station:wmo:42361:1,2023-01-26T09:55:00Z,27.5500,-92.4900,22.6,23.5,11111222
Shell,ioos:station:wmo:42361:1,2023-01-26T10:05:00Z,27.5500,-92.4900,22.6,23.5,11111222
Shell,ioos:station:wmo:42361:1,2023-01-26T10:15:00Z,27.5500,-92.4900,22.6,23.5,11111222
Shell,ioos:station:wmo:42361:1,2023-01-26T10:25:00Z,27.5500,-92.4900,22.6,23.5,11111222
Shell,ioos:station:wmo:42361:1,2023-01-26T10:35:00Z,27.5500,-92.4900,22.6,23.5,11111222
Shell,ioos:station:wmo:42361:1,2023-01-26T10:45:00Z,27.5500,-92.4900,22.6,23.5,11111222
Shell,ioos:station:wmo:42361:1,2023-01-26T10:55:00Z,27.5500,-92.4900,22.6,23.5,11111222
Shell,ioos:station:wmo:42361:1,2023-01-26T11:05:00Z,27.5500,-92.4900,22.6,23.5,11111222
Shell,ioos:station:wmo:42361:1,2023-01-26T11:15:00Z,27.5500,-92.4900,22.6,23.5,11111222
Shell,ioos:station:wmo:42361:1,2023-01-26T11:25:00Z,27.5500,-92.4900,22.6,23.5,11111222
Shell,ioos:station:wmo:42361:1,2023-01-26T11:35:00Z,27.5500,-92.4900,22.6,23.5,11111222
Shell,ioos:station:wmo:42361:1,2023-01-26T11:45:00Z,27.5500,-92.4900,22.6,23.5,11111222
Shell,ioos:station:wmo:42361:1,2023-01-26T11:55:00Z,27.5500,-92.4900,22.6,23.5,11111222
Shell,ioos:station:wmo:42361:1,2023-01-26T12:05:00Z,27.5500,-92.4900,22.6,23.5,11111222
Shell,ioos:station:wmo:42361:1,2023-01-26T12:15:00Z,27.5500,-92.4900,22.6,23.6,11111222
Shell,ioos:station:wmo:42361:1,2023-01-26T12:25:00Z,27.5500,-92.4900,22.6,23.6,11111222
Shell,ioos:station:wmo:42361:1,2023-01-26T12:35:00Z,27.5500,-92.4900,22.6,23.6,11111222
Shell,ioos:station:wmo:42361:1,2023-01-26T12:45:00Z,27.5500,-92.4900,22.6,23.6,11111222
Shell,ioos:station:wmo:42361:1,2023-01-26T12:55:00Z,27.5500,-92.4900,22.6,23.6,11111222
Shell,ioos:station:wmo:42361:1,2023-01-26T13:05:00Z,27.5500,-92.4900,22.6,23.6,11111222
Shell,ioos:station:wmo:42361:1,2023-01-26T13:15:00Z,27.5500,-92.4900,22.6,23.6,11111222
Shell,ioos:station:wmo:42361:1,2023-01-26T13:25:00Z,27.5500,-92.4900,22.6,23.6,11111222
Shell,ioos:station:wmo:42361:1,2023-01-26T13:35:00Z,27.5500,-92.4900,22.6,23.7,11111222
Shell,ioos:station:wmo:42361:1,2023-01-26T13:45:00Z,27.5500,-92.4900,22.6,23.7,11111222
Shell,ioos:station:wmo:42361:1,2023-01-26T13:55:00Z,27.5500,-92.4900,22.6,23.7,11111222
Shell,ioos:station:wmo:42361:1,2023-01-26T14:05:00Z,27.5500,-92.4900,22.6,23.7,11111222
Shell,ioos:station:wmo:42361:1,2023-01-26T14:15:00Z,27.5500,-92.4900,22.6,23.7,11111222
Shell,ioos:station:wmo:42361:1,2023-01-26T14:25:00Z,27.5500,-92.4900,22.6,23.7,11111222
Shell,ioos:station:wmo:42361:1,2023-01-26T14:35:00Z,27.5500,-92.4900,22.6,23.7,11111222
Shell,ioos:station:wmo:42361:1,2023-01-26T14:45:00Z,27.5500,-92.4900,22.6,23.7,11111222
Shell,ioos:station:wmo:42361:1,2023-01-26T14:55:00Z,27.5500,-92.4900,22.6,23.7,11111222
Shell,ioos:station:wmo:42361:1,2023-01-26T15:05:00Z,27.5500,-92.4900,22.6,23.7,11111222
Shell,ioos:station:wmo:42361:1,2023-01-26T15:15:00Z,27.5500,-92.4900,22.6,23.7,11111222
Shell,ioos:station:wmo:42361:1,2023-01-26T15:25:00Z,27.5500,-92.4900,22.6,23.7,11111222
Shell,ioos:station:wmo:42361:1,2023-01-26T15:35:00Z,27.5500,-92.4900,22.6,23.7,11111222
Shell,ioos:station:wmo:42361:1,2023-01-26T15:45:00Z,27.5500,-92.4900,22.6,23.7,11111222
Shell,ioos:station:wmo:42361:1,2023-01-26T15:55:00Z,27.5500,-92.4900,22.6,23.8,11111222